星链-33908 (STARLINK-33908)

导读

STARLINK-33908是美国星链计划的卫星,星链计划由太空探索技术公司SpaceX主导推进,该卫星于2025年4月28日发射,属于星链低轨互联网卫星星座的组成部分,主要用于为全球范围内用户提供覆盖广泛、低延迟的高速卫星互联网接入服务,补全星链星座的服务覆盖能力,强化星座整体运行稳定性。

Basic Information
目录编号:
63700
目录名称:
STARLINK-33908
国际标识:
2025-087D
轨道中心:
EARTH
卫星名称:
星链-33908
卫星全名:
星链-33908 (STARLINK-33908)
卫星状态:
在轨 (已飞行494 天)
发射日期:
2025-04-28 UTC
国别 :
美国 (US)
星等 :
--
Orbit Information
数据来源 国际轨道数据 AOE轨道数据
星历时间 2026-09-02T07:31:43+0800
2天前
查看轨道信息
2026-08-31T23:00:00+0800
3天前
查看轨道信息
半长轴 6843.327km 6843.389km
偏心率 0.0000994 0.0001514
轨道倾角 53.160° 53.160°
近地点辐角 70.167° 49.485°
升交点赤经 120.484° 126.812°
平近点角 289.944° 23.857°
近地点 464.509km 464.215km
远地点 465.871km 466.289km
周期 93.899分钟 93.900分钟
每日圈数 15.33564 15.33543
Detailed Information
固有亮度:
5
最大亮度:
2.5
卫星平台:
Starlink V1.0
覆盖范围:
全球
运营商:
太空探索技术公司
运营商所在国:
美国
制造商(研发单位):
太空探索技术公司
制造商所在国:
美国
使用方式:
暂无
Satellite Introduction
Starlink 计划是 SpaceX 推出的全球卫星互联网项目,通过发射低轨道卫星,为全球尤其是偏远地区提供高速、低延迟的互联网服务。自 2019 年起,Starlink 已部署数千颗卫星,旨在缩小全球数字鸿沟,推动互联网普及。该项目还为军事、航空等行业提供通信支持,带来广泛经济效益。
2D Orbit Map
3D Orbit Map
Orbit Altitude Analysis Chart
Orbit Inclination Analysis Chart
Orbit Comprehensive Analysis Chart
View Comprehensive Chart
Conjunction Data List
Event ID Objects TCA Miss Dist (km) Collision Risk Probability Collision Risk Index (CRI) Action
CDM_260830-175406-370006-474521
2026-08-30T
17:54:18+0000
0.729 km
远距离
3.149055E-5 中风险 0.65
CDM_260903-160405-178406-370022
2026-09-03T
16:04:17+0000
2.038 km
极远距离
2.34467E-6 低风险 0.42
CDM_260830-093506-370006-772621
2026-08-30T
09:35:57+0000
2.223 km
极远距离
2.203553E-6 低风险 0.42
CDM_260903-190306-282806-370021
2026-09-03T
19:03:14+0000
2.033 km
极远距离
1.892207E-6 低风险 0.41
CDM_260830-150106-370006-966423
2026-08-30T
15:01:38+0000
2.440 km
极远距离
1.809119E-6 低风险 0.4
CDM_260905-113106-370006-591821
2026-09-05T
11:31:16+0000
1.960 km
极远距离
1.636773E-6 低风险 0.39
CDM_260905-055205-246806-370021
2026-09-05T
05:52:00+0000
2.394 km
极远距离
1.635829E-6 低风险 0.39
CDM_260903-114106-370006-602621
2026-09-03T
11:41:50+0000
2.447 km
极远距离
1.488516E-6 低风险 0.38
CDM_260830-034806-370006-830621
2026-08-30T
03:48:18+0000
2.699 km
极远距离
1.457114E-6 低风险 0.38
CDM_260905-020005-475006-370021
2026-09-05T
02:00:49+0000
2.171 km
极远距离
1.436255E-6 低风险 0.38